Weather History for Hereford, TX

Change the Weather History Date:

Wednesday, June 19, 2013

  Actual Average (KAMA) Record (KAMA)
Temperature  
Mean Temperature 74 °F 75 °F  
Max Temperature 83 °F 89 °F 104 °F (1996)
Min Temperature 65 °F 62 °F 47 °F (1912)
Degree Days  
Heating Degree Days 0 0  
Month to date heating degree days 5  
Since 1 June heating degree days 5  
Since 1 July heating degree days 4176  
Cooling Degree Days 9 11  
Month to date cooling degree days 159  
Year to date cooling degree days 284  
Since 1 June cooling degree days 159  
Growing Degree Days 24 (Base 50)    
Moisture  
Dew Point 59 °F    
Average Humidity 66    
Maximum Humidity 87    
Minimum Humidity 34    
Precipitation  
Precipitation 0.00 in 0.10 in 1.62 in (1923)
Month to date precipitation 2.14  
Year to date precipitation 8.50  
Snow  
Snow 0.00 in 0.00 in T in (2008)
Month to date snowfall 0.0  
Since 1 June snowfall 0.0  
Since 1 July snowfall 17.8  
Snow Depth -    
Sea Level Pressure  
Sea Level Pressure 30.01 in    
Wind  
Wind Speed 18 mph (SE)    
Max Wind Speed 38 mph    
Max Gust Speed 44 mph    
Visibility 10 miles    
Events Thunderstorm    
T = Trace of Precipitation, MM = Missing Value Source: NWS Daily Summary

Daily Weather History Graph

Daily Weather History Graph

Search for Another Location

Airport:

Trip Planner

Search our weather history database for the weather conditions in past years. The results will help you decide how hot, cold, wet, or windy it might be!

Date:

Astronomy

Jun. 19, 2013 Rise Set
Actual Time 6:35 AM CDT 9:05 PM CDT
Civil Twilight 6:06 AM CDT 9:35 PM CDT
Nautical Twilight 5:29 AM CDT 10:12 PM CDT
Astronomical Twilight 4:49 AM CDT 10:52 PM CDT
Moon 5:07 PM CDT (6/19) 3:14 AM CDT (6/19)
Length of Visible Light 15h 29m
Length of Day
14h 29m
Waxing Gibbous, 80% of the Moon is Illuminated
Jun 19
Waxing Gibbous
Jun 23
Full
Jun 29
Last Quarter
Jul 8
New
Jul 15
First Quarter

Hourly Weather History & Observations

Time (CDT) Temp. Heat Index Dew Point Humidity Pressure Visibility Wind Dir Wind Speed Gust Speed Precip Events Conditions
12:15 AM 70.2 °F - 60.8 °F 72% 30.04 in 10.0 mi SE 13.8 mph - N/A   Clear
12:35 AM 69.8 °F - 61.0 °F 73% 30.04 in 10.0 mi SE 13.8 mph 19.6 mph N/A   Clear
12:55 AM 69.8 °F - 60.8 °F 73% 30.04 in 10.0 mi SE 15.0 mph - N/A   Clear
1:15 AM 69.4 °F - 60.8 °F 74% 30.04 in 10.0 mi SE 12.7 mph - N/A   Clear
1:35 AM 69.1 °F - 60.8 °F 75% 30.04 in 10.0 mi SE 16.1 mph 19.6 mph N/A   Clear
1:55 AM 68.9 °F - 60.8 °F 75% 30.05 in 10.0 mi ESE 12.7 mph - N/A   Clear
2:15 AM 68.0 °F - 61.0 °F 78% 30.05 in 10.0 mi ESE 10.4 mph - N/A   Clear
2:35 AM 67.5 °F - 61.0 °F 80% 30.04 in 10.0 mi SE 12.7 mph 17.3 mph N/A   Clear
2:55 AM 67.1 °F - 61.0 °F 81% 30.04 in 10.0 mi SE 12.7 mph - N/A   Clear
3:15 AM 67.1 °F - 60.8 °F 80% 30.03 in 10.0 mi SSE 15.0 mph - N/A   Clear
3:35 AM 66.7 °F - 60.8 °F 81% 30.02 in 10.0 mi SSE 15.0 mph - N/A   Clear
3:55 AM 67.1 °F - 60.8 °F 80% 30.02 in 10.0 mi SSE 12.7 mph 17.3 mph N/A   Clear
4:15 AM 66.4 °F - 60.8 °F 82% 30.02 in 10.0 mi SSE 12.7 mph - N/A   Clear
4:35 AM 66.4 °F - 60.8 °F 82% 30.02 in 10.0 mi SSE 13.8 mph - N/A   Clear
4:55 AM 66.4 °F - 61.2 °F 83% 30.02 in 10.0 mi SSE 12.7 mph - N/A   Clear
5:15 AM 66.2 °F - 61.3 °F 84% 30.02 in 10.0 mi SSE 12.7 mph - N/A   Clear
5:35 AM 66.2 °F - 61.7 °F 85% 30.02 in 10.0 mi SSE 15.0 mph 19.6 mph N/A   Scattered Clouds
5:55 AM 66.0 °F - 61.7 °F 86% 30.02 in 10.0 mi SSE 13.8 mph - N/A   Scattered Clouds
6:15 AM 65.7 °F - 61.7 °F 87% 30.02 in 10.0 mi South 15.0 mph - N/A   Clear
6:35 AM 65.8 °F - 61.7 °F 86% 30.02 in 10.0 mi SSE 12.7 mph - N/A   Clear
6:55 AM 65.8 °F - 61.7 °F 86% 30.02 in 10.0 mi SSE 11.5 mph - N/A   Clear
7:15 AM 66.0 °F - 61.7 °F 86% 30.03 in 10.0 mi SSE 9.2 mph - N/A   Clear
7:35 AM 66.4 °F - 61.7 °F 85% 30.03 in 10.0 mi SSE 10.4 mph - N/A   Clear
7:55 AM 68.0 °F - 61.7 °F 80% 30.03 in 10.0 mi SSE 11.5 mph - N/A   Clear
8:15 AM 69.3 °F - 62.1 °F 78% 30.02 in 10.0 mi SSE 10.4 mph - N/A   Clear
8:35 AM 70.3 °F - 61.7 °F 74% 30.03 in 10.0 mi SSE 10.4 mph - N/A   Clear
8:55 AM 72.1 °F - 61.9 °F 70% 30.05 in 10.0 mi SE 8.1 mph - N/A   Clear
9:15 AM 74.1 °F - 62.4 °F 67% 30.07 in 10.0 mi East 11.5 mph - N/A   Scattered Clouds
9:35 AM 70.7 °F - 62.2 °F 75% 30.08 in 10.0 mi ENE 21.9 mph 25.3 mph N/A   Mostly Cloudy
9:55 AM 70.2 °F - 61.5 °F 74% 30.09 in 10.0 mi East 21.9 mph 27.6 mph N/A   Overcast
10:15 AM 69.3 °F - 61.0 °F 75% 30.09 in 10.0 mi East 26.5 mph 32.2 mph N/A   Overcast
10:35 AM 67.8 °F - 58.8 °F 73% 30.09 in 10.0 mi East 29.9 mph 38.0 mph N/A   Overcast
10:55 AM 70.0 °F - 58.3 °F 66% 30.09 in 10.0 mi East 32.2 mph 38.0 mph N/A   Mostly Cloudy
11:15 AM 72.3 °F - 57.6 °F 60% 30.09 in 10.0 mi East 28.8 mph 38.0 mph N/A   Scattered Clouds
11:35 AM 74.7 °F - 56.1 °F 52% 30.08 in 10.0 mi East 28.8 mph 39.1 mph N/A   Scattered Clouds
11:55 AM 76.1 °F - 56.5 °F 50% 30.07 in 10.0 mi ESE 38.0 mph 43.7 mph N/A   Clear
12:15 PM 76.6 °F - 59.0 °F 54% 30.07 in 10.0 mi East 31.1 mph 40.3 mph N/A   Clear
12:35 PM 77.0 °F - 58.5 °F 53% 30.06 in 7.0 mi ESE 33.4 mph 41.4 mph N/A   Clear
12:55 PM - - - N/A% 30.06 in 3.0 mi ESE 33.4 mph 43.7 mph N/A   Haze
1:15 PM - - - N/A% 30.05 in 7.0 mi ESE 31.1 mph 42.6 mph N/A   Clear
1:35 PM - - - N/A% 30.04 in 5.0 mi ESE 32.2 mph 40.3 mph N/A   Haze
1:55 PM 80.1 °F 80.4 °F 57.2 °F 45% 30.03 in 10.0 mi ESE 32.2 mph 41.4 mph N/A   Clear
2:15 PM - - - N/A% 30.02 in 10.0 mi SE 28.8 mph 35.7 mph N/A   Clear
2:35 PM - - - N/A% 30.02 in 10.0 mi SE 26.5 mph 38.0 mph N/A   Clear
2:55 PM - - - N/A% 30.00 in 10.0 mi SE 26.5 mph 35.7 mph N/A   Clear
3:15 PM 83.5 °F 83.6 °F 60.1 °F 45% 29.99 in 10.0 mi SSE 32.2 mph 38.0 mph N/A   Clear
3:35 PM - - - N/A% 29.98 in 10.0 mi SSE 27.6 mph 36.8 mph N/A   Clear
3:55 PM - - - N/A% 29.97 in 10.0 mi SSE 26.5 mph 35.7 mph N/A   Clear
4:15 PM - - - N/A% 29.96 in 10.0 mi SSE 27.6 mph 35.7 mph N/A   Clear
4:35 PM - - - N/A% 29.95 in 10.0 mi SSE 27.6 mph 38.0 mph N/A   Clear
4:55 PM - - - N/A% 29.95 in 10.0 mi SSE 27.6 mph 34.5 mph N/A   Clear
5:15 PM 81.5 °F 82.4 °F 61.7 °F 51% 29.95 in 10.0 mi SSE 28.8 mph 35.7 mph N/A   Clear
5:35 PM - - - N/A% 29.94 in 10.0 mi SSE 26.5 mph 33.4 mph N/A   Clear
5:55 PM 80.1 °F 81.4 °F 62.4 °F 55% 29.94 in 10.0 mi SSE 25.3 mph 36.8 mph N/A   Clear
6:15 PM 78.8 °F - 62.4 °F 57% 29.93 in 10.0 mi SSE 24.2 mph 29.9 mph N/A   Clear
6:35 PM 78.3 °F - 62.6 °F 58% 29.96 in 10.0 mi SSE 21.9 mph 31.1 mph N/A   Clear
6:55 PM 77.4 °F - 63.0 °F 61% 29.97 in 10.0 mi SSE 23.0 mph 34.5 mph N/A   Clear
7:15 PM 76.5 °F - 63.0 °F 63% 29.95 in 10.0 mi SSE 21.9 mph 34.5 mph N/A   Clear
7:35 PM 76.1 °F - 62.6 °F 63% 29.96 in 10.0 mi SSE 17.3 mph 32.2 mph N/A Thunderstorm Clear
7:55 PM 75.2 °F - 61.0 °F 61% 29.95 in 10.0 mi SSE 12.7 mph 23.0 mph N/A   Scattered Clouds
8:15 PM 76.1 °F - 52.9 °F 44% 29.91 in 10.0 mi SE 5.8 mph 16.1 mph N/A   Clear
8:35 PM 77.2 °F - 50.5 °F 39% 29.89 in 10.0 mi South 21.9 mph 28.8 mph N/A   Clear
8:55 PM 79.3 °F - 48.7 °F 34% 29.91 in 10.0 mi SSW 21.9 mph 29.9 mph N/A   Clear
9:15 PM 75.2 °F - 54.5 °F 48% 29.93 in 10.0 mi SSW 33.4 mph 42.6 mph N/A   Clear
9:35 PM 77.2 °F - 52.7 °F 42% 29.93 in 10.0 mi South 29.9 mph 41.4 mph N/A   Clear
9:55 PM 77.2 °F - 57.0 °F 50% 29.93 in 10.0 mi South 33.4 mph 41.4 mph N/A   Clear
10:15 PM 75.6 °F - 59.9 °F 58% 29.93 in 10.0 mi South 27.6 mph 38.0 mph N/A   Clear
10:35 PM 74.3 °F - 58.1 °F 57% 29.94 in 10.0 mi South 21.9 mph 32.2 mph N/A   Clear
10:55 PM 73.6 °F - 54.7 °F 51% 29.95 in 10.0 mi South 18.4 mph 27.6 mph N/A   Clear
11:15 PM 73.2 °F - 53.4 °F 50% 29.95 in 10.0 mi South 16.1 mph 20.7 mph N/A   Clear
11:35 PM 72.7 °F - 52.2 °F 48% 29.96 in 10.0 mi SSW 20.7 mph 26.5 mph N/A   Clear
11:55 PM 72.9 °F - 51.8 °F 47% 29.96 in 10.0 mi SSW 18.4 mph 23.0 mph N/A   Clear